Weather in Goltyavino

Russia / Krasnoyarsk Krai     58°26′00″N   98°26′12″E
temp.,
°C
wind,
m/s
gust,
m/s
humid.,
%
clouds,
%
prec.,
mm/h
press.,
hPa
HPBL,
m
6 may, thu
thu601:000ssw1392100 0.1 101498
04:000se12100100 2.1 101251
07:00+1ese1399100 3.6 1010157
10:00+1n1396100 0.2 1010446
13:00+3n3585100 0.3 1011760
16:00+6nnw356693 0.1 10121323
19:00+4nne13835 0.4 101470
22:00−3se009563 0.0 101610
7 may, fri
fri701:00−4ese0097100 0.0 101710
04:00−4e119792 0.0 101713
07:00+2se2775100 0.0 1017300
10:00+5se4760100 0.0 1016929
13:00+8se585098 0.0 10131240
16:00+10se59495 0.0 10111373
19:00+9se5126238 0.0 1009608
22:00+5se51571100 0.0 1008686
8 may, sat
sat801:00+4sse41293100 3.9 1008700
04:00+3s41096100 4.7 1007551
07:00+6wsw398949 4.8 1008746
10:00+9w4773100 0.1 10091193
13:00+9w4672100 0.6 10091005
16:00+9w4568100 0.9 10101224
19:00+6w1287100 1.4 1011168
22:00+3sse119480 0.0 101110
9 may, sun
sun901:00+2ese1195100 0.0 101010
04:00+3ese1295100 0.1 101052
07:00+3ene2697100 2.4 1010551
10:00+4ne2694100 2.6 1011659
13:00+7nne3784100 3.3 1012787
16:00+8nne468157 0.5 1013860
19:00+7nnw238978 1.0 101587
22:00+5nw219499 0.4 101717
10 may, mon
mon1001:00+2nnw229527 0.5 101816
04:00+1nnw22945 0.0 102018
07:00+6nne12775 0.0 1023179
10:00+11ne235911 0.0 1023997
13:00+12ne2351100 0.3 10221668
16:00+13ene3346100 0.1 10211838
19:00+11ene115611 0.1 102111
22:00+6ne117143 0.0 102210